Thunder Bay, Ontario

8:21 AM EDT on June 29, 2017 (GMT -0400)
Thunder Bay

Weather History for CYQT - November, 2013

Change the Weather History Date:

Tuesday, November 5, 2013

  Actual Average Record
Temperature  
Mean Temperature 36 °F -  
Max Temperature 45 °F -11 °F 62 °F (2016)
Min Temperature 28 °F -24 °F 15 °F (2010)
Degree Days  
Heating Degree Days 28    
Moisture  
Dew Point 28 °F    
Average Humidity 69    
Maximum Humidity 93    
Minimum Humidity 34    
Precipitation  
Precipitation 0.00 in 0.01 in - ()
Sea Level Pressure  
Sea Level Pressure 30.09 in    
Wind  
Wind Speed 8 mph ()    
Max Wind Speed 15 mph    
Max Gust Speed 26 mph    
Visibility 16.2 miles    
Events Rain    
Averages and records for this station are not official NWS values.
T = Trace of Precipitation, MM = Missing Value Source: Averaged Metar Reports

Daily Weather History Graph

Daily Weather History Graph

Search for Another Location

Airport or City:

Trip Planner

Search our weather history database for the weather conditions in past years. The results will help you decide how hot, cold, wet, or windy it might be!

Date:

Astronomy

Nov. 05, 2013 Rise Set
Actual Time 7:49 AM EST 5:31 PM EST
Civil Twilight 7:16 AM EST 6:04 PM EST
Nautical Twilight 6:39 AM EST 6:41 PM EST
Astronomical Twilight 6:02 AM EST 7:18 PM EST
Moon 10:11 AM EST (11/5) 7:25 PM EST (11/5)
Length of Visible Light 10h 47m
Length of Day
9h 41m
Waxing Crescent, 6% of the Moon is Illuminated
Nov 5
Waxing Crescent
Nov 10
First Quarter
Nov 17
Full
Nov 25
Last Quarter
Dec 2
New

Hourly Weather History & Observations

Time (EST) Temp. Windchill Dew Point Humidity Pressure Visibility Wind Dir Wind Speed Gust Speed Precip Events Conditions
12:00 AM 39.2 °F 31.6 °F 35.6 °F 87% 29.98 in 15.0 mi West 12.7 mph - N/A Rain Light Rain
1:00 AM 38 °F - 33 °F 76% 30.00 in 10 mi WSW 10.4 mph - -   Overcast
1:00 AM 37.4 °F 30.3 °F 33.8 °F 87% 30.00 in 15.0 mi WSW 10.4 mph - N/A Rain Light Rain
1:21 AM 37.4 °F 30.3 °F 32.0 °F 81% 30.01 in 15.0 mi WSW 10.4 mph - N/A   Mostly Cloudy
2:00 AM 37.4 °F 30.8 °F 30.2 °F 75% 30.01 in 15.0 mi WSW 9.2 mph - N/A   Mostly Cloudy
3:00 AM 35.6 °F 30.7 °F 30.2 °F 81% 30.04 in 15.0 mi SW 5.8 mph - N/A   Mostly Cloudy
4:00 AM 35.6 °F 29.2 °F 30.2 °F 81% 30.05 in 15.0 mi WSW 8.1 mph - N/A   Clear
5:00 AM 33.8 °F 27.7 °F 28.4 °F 81% 30.06 in 15.0 mi SW 6.9 mph - N/A   Clear
6:00 AM 32.0 °F 27.5 °F 26.6 °F 80% 30.07 in 15.0 mi WSW 4.6 mph - N/A   Clear
7:00 AM 29 °F - 26 °F 85% 30.08 in 10 mi South 4.6 mph - -  
7:00 AM 28.4 °F 23.3 °F 26.6 °F 93% 30.08 in 15.0 mi SSW 4.6 mph - N/A   Partly Cloudy
8:00 AM 30.2 °F 25.4 °F 26.6 °F 86% 30.09 in 20.0 mi WSW 4.6 mph - N/A   Partly Cloudy
9:00 AM 32.0 °F 28.7 °F 28.4 °F 87% 30.10 in 20.0 mi WSW 3.5 mph - N/A   Scattered Clouds
10:00 AM 37.4 °F 30.3 °F 26.6 °F 65% 30.10 in 20.0 mi WSW 10.4 mph - N/A   Mostly Cloudy
11:00 AM 41.0 °F 34.3 °F 26.6 °F 57% 30.11 in 20.0 mi West 11.5 mph - N/A   Mostly Cloudy
12:00 PM 41.0 °F 33.9 °F 26.6 °F 57% 30.11 in 20.0 mi WSW 12.7 mph 20.7 mph N/A   Mostly Cloudy
1:00 PM 44 °F - 25 °F 34% 30.12 in 10 mi WSW 15.0 mph - -  
1:00 PM 44.6 °F 37.8 °F 24.8 °F 46% 30.12 in 20.0 mi WSW 15.0 mph 26.5 mph N/A   Overcast
2:00 PM 44.6 °F 38.4 °F 24.8 °F 46% 30.11 in 20.0 mi West 12.7 mph - N/A   Overcast
3:00 PM 44.6 °F 38.8 °F 24.8 °F 46% 30.12 in 20.0 mi West 11.5 mph 17.3 mph N/A   Overcast
4:00 PM 42.8 °F 37.0 °F 26.6 °F 53% 30.13 in 20.0 mi WSW 10.4 mph - N/A   Overcast
5:00 PM 41.0 °F 35.2 °F 26.6 °F 57% 30.12 in 20.0 mi West 9.2 mph 17.3 mph N/A   Overcast
6:00 PM 37.4 °F 33.8 °F 26.6 °F 65% 30.12 in 20.0 mi WNW 4.6 mph - N/A   Overcast
7:00 PM 37 °F - 27 °F 56% 30.12 in 10 mi West 5.8 mph - -   Overcast
7:00 PM 37.4 °F 32.8 °F 26.6 °F 65% 30.12 in 15.0 mi West 5.8 mph - N/A   Overcast
8:00 PM 37.4 °F 33.8 °F 26.6 °F 65% 30.13 in 15.0 mi WNW 4.6 mph - N/A   Overcast
8:17 PM 35.6 °F 31.7 °F 26.6 °F 70% 30.12 in 15.0 mi West 4.6 mph - N/A   Overcast
9:00 PM 35.6 °F 32.8 °F 26.6 °F 70% 30.11 in 15.0 mi WNW 3.5 mph - N/A   Overcast
10:00 PM 35.6 °F 31.7 °F 26.6 °F 70% 30.11 in 15.0 mi WSW 4.6 mph - N/A   Overcast
11:00 PM 35.6 °F 31.7 °F 26.6 °F 70% 30.11 in 15.0 mi West 4.6 mph - N/A   Overcast